Time,TemperatureF,DewpointF,PressureIn,WindDirection,WindDirectionDegrees,WindSpeedMPH,WindSpeedGustMPH,Humidity,HourlyPrecipIn,Conditions,Clouds,dailyrainin,SoftwareType,DateUTC
2013-01-25 00:00:00,12.4,-2.7,30.18,West,279,2.0,4.0,50,0.00,,---,0.00,VWS V14.00,2013-01-25 05:00:00,
2013-01-25 00:01:00,12.4,-2.7,30.18,West,279,4.0,4.0,50,0.00,,---,0.00,VWS V14.00,2013-01-25 05:01:00,
2013-01-25 00:06:00,12.4,-3.5,30.18,NW,304,3.0,3.0,48,0.00,,---,0.00,VWS V14.00,2013-01-25 05:06:00,
2013-01-25 00:11:00,12.5,-3.0,30.18,WSW,246,1.0,2.0,49,0.00,,---,0.00,VWS V14.00,2013-01-25 05:11:00,
2013-01-25 00:16:00,12.5,-3.0,30.18,WSW,249,0.0,0.0,49,0.00,,---,0.00,VWS V14.00,2013-01-25 05:16:00,
2013-01-25 00:21:00,12.4,-3.1,30.18,SSW,194,1.0,1.0,49,0.00,,---,0.00,VWS V14.00,2013-01-25 05:21:00,
2013-01-25 00:26:00,12.3,-2.8,30.17,West,263,3.0,3.0,50,0.00,,---,0.00,VWS V14.00,2013-01-25 05:26:00,
2013-01-25 00:31:00,12.2,-4.2,30.18,WSW,252,5.0,5.0,47,0.00,,---,0.00,VWS V14.00,2013-01-25 05:31:00,
2013-01-25 00:36:00,12.2,-3.3,30.19,West,278,0.0,0.0,49,0.00,,---,0.00,VWS V14.00,2013-01-25 05:36:00,
2013-01-25 00:41:00,12.2,-3.7,30.18,NW,309,10.0,10.0,48,0.00,,---,0.00,VWS V14.00,2013-01-25 05:41:00,
2013-01-25 00:46:00,12.2,-3.3,30.20,NW,313,1.0,2.0,49,0.00,,---,0.00,VWS V14.00,2013-01-25 05:46:00,
2013-01-25 00:51:00,12.1,-3.4,30.19,West,264,2.0,3.0,49,0.00,,---,0.00,VWS V14.00,2013-01-25 05:51:00,
2013-01-25 00:56:00,12.0,-3.9,30.19,West,273,1.0,7.0,48,0.00,,---,0.00,VWS V14.00,2013-01-25 05:56:00,
2013-01-25 01:01:00,12.0,-3.5,30.19,NW,310,6.0,11.0,49,0.00,,---,0.00,VWS V14.00,2013-01-25 06:01:00,
2013-01-25 01:06:00,12.0,-2.7,30.19,West,281,4.0,5.0,51,0.00,,---,0.00,VWS V14.00,2013-01-25 06:06:00,
2013-01-25 01:11:00,11.9,-2.7,30.19,SW,225,3.0,3.0,51,0.00,,---,0.00,VWS V14.00,2013-01-25 06:11:00,
2013-01-25 01:16:00,11.8,-3.2,30.20,NNW,333,1.0,4.0,50,0.00,,---,0.00,VWS V14.00,2013-01-25 06:16:00,
2013-01-25 01:21:00,11.7,-3.3,30.19,SW,232,2.0,2.0,50,0.00,,---,0.00,VWS V14.00,2013-01-25 06:21:00,
2013-01-25 01:26:00,11.7,-3.3,30.21,West,281,0.0,0.0,50,0.00,,---,0.00,VWS V14.00,2013-01-25 06:26:00,
2013-01-25 01:31:00,11.6,-3.8,30.20,WNW,301,1.0,2.0,49,0.00,,---,0.00,VWS V14.00,2013-01-25 06:31:00,
2013-01-25 01:36:00,11.6,-3.8,30.20,NNW,348,1.0,5.0,49,0.00,,---,0.00,VWS V14.00,2013-01-25 06:36:00,
2013-01-25 01:41:00,11.5,-4.4,30.22,SSE,147,0.0,2.0,48,0.00,,---,0.00,VWS V14.00,2013-01-25 06:41:00,
2013-01-25 01:46:00,11.4,-4.5,30.21,NW,314,7.0,7.0,48,0.00,,---,0.00,VWS V14.00,2013-01-25 06:46:00,
2013-01-25 01:51:00,11.4,-4.0,30.21,NNW,346,4.0,8.0,49,0.00,,---,0.00,VWS V14.00,2013-01-25 06:51:00,
2013-01-25 01:56:00,11.4,-3.6,30.22,WNW,286,1.0,2.0,50,0.00,,---,0.00,VWS V14.00,2013-01-25 06:56:00,
2013-01-25 02:01:00,11.3,-4.1,30.22,WNW,286,2.0,2.0,49,0.00,,---,0.00,VWS V14.00,2013-01-25 07:01:00,
2013-01-25 02:06:00,11.2,-3.4,30.22,WNW,287,2.0,4.0,51,0.00,,---,0.00,VWS V14.00,2013-01-25 07:06:00,
2013-01-25 02:11:00,11.2,-3.4,30.22,SW,233,0.0,3.0,51,0.00,,---,0.00,VWS V14.00,2013-01-25 07:11:00,
2013-01-25 02:16:00,11.2,-3.4,30.22,West,273,0.0,2.0,51,0.00,,---,0.00,VWS V14.00,2013-01-25 07:16:00,
2013-01-25 02:21:00,11.1,-3.5,30.22,NNW,332,1.0,2.0,51,0.00,,---,0.00,VWS V14.00,2013-01-25 07:21:00,
2013-01-25 02:26:00,11.1,-3.5,30.22,WSW,246,1.0,1.0,51,0.00,,---,0.00,VWS V14.00,2013-01-25 07:26:00,
2013-01-25 02:31:00,11.0,-3.2,30.23,SSE,163,0.0,0.0,52,0.00,,---,0.00,VWS V14.00,2013-01-25 07:31:00,
2013-01-25 02:36:00,10.8,-3.8,30.23,SE,146,1.0,2.0,51,0.00,,---,0.00,VWS V14.00,2013-01-25 07:36:00,
2013-01-25 02:41:00,10.7,-3.9,30.23,South,173,1.0,2.0,51,0.00,,---,0.00,VWS V14.00,2013-01-25 07:41:00,
2013-01-25 02:46:00,10.7,-3.9,30.23,South,173,0.0,1.0,51,0.00,,---,0.00,VWS V14.00,2013-01-25 07:46:00,
2013-01-25 02:51:00,10.5,-3.2,30.23,South,174,0.0,2.0,53,0.00,,---,0.00,VWS V14.00,2013-01-25 07:51:00,
2013-01-25 02:56:00,10.4,-3.3,30.23,SW,215,2.0,3.0,53,0.00,,---,0.00,VWS V14.00,2013-01-25 07:56:00,
2013-01-25 03:01:00,10.4,-3.3,30.23,SSW,193,2.0,2.0,53,0.00,,---,0.00,VWS V14.00,2013-01-25 08:01:00,
2013-01-25 03:06:00,10.4,-3.3,30.22,SSW,192,1.0,2.0,53,0.00,,---,0.00,VWS V14.00,2013-01-25 08:06:00,
2013-01-25 03:11:00,10.3,-3.4,30.22,SSW,194,0.0,2.0,53,0.00,,---,0.00,VWS V14.00,2013-01-25 08:11:00,
2013-01-25 03:16:00,10.2,-3.5,30.23,SSW,194,0.0,2.0,53,0.00,,---,0.00,VWS V14.00,2013-01-25 08:16:00,
2013-01-25 03:21:00,10.1,-3.2,30.23,WSW,253,1.0,2.0,54,0.00,,---,0.00,VWS V14.00,2013-01-25 08:21:00,
2013-01-25 03:26:00,10.0,-2.9,30.22,SSW,200,1.0,3.0,55,0.00,,---,0.00,VWS V14.00,2013-01-25 08:26:00,
2013-01-25 03:31:00,9.9,-3.0,30.22,West,275,0.0,3.0,55,0.00,,---,0.00,VWS V14.00,2013-01-25 08:31:00,
2013-01-25 03:36:00,9.9,-3.4,30.23,West,275,0.0,1.0,54,0.00,,---,0.00,VWS V14.00,2013-01-25 08:36:00,
2013-01-25 03:41:00,9.9,-3.4,30.23,WSW,250,0.0,1.0,54,0.00,,---,0.00,VWS V14.00,2013-01-25 08:41:00,
2013-01-25 03:46:00,9.9,-3.0,30.23,WSW,250,0.0,2.0,55,0.00,,---,0.00,VWS V14.00,2013-01-25 08:46:00,
2013-01-25 03:51:00,9.9,-3.0,30.23,WSW,250,2.0,2.0,55,0.00,,---,0.00,VWS V14.00,2013-01-25 08:51:00,
2013-01-25 03:56:00,9.9,-2.3,30.23,WSW,250,1.0,3.0,57,0.00,,---,0.00,VWS V14.00,2013-01-25 08:56:00,
2013-01-25 04:01:00,9.9,-2.7,30.23,WSW,250,1.0,2.0,56,0.00,,---,0.00,VWS V14.00,2013-01-25 09:01:00,
2013-01-25 04:06:00,9.9,-2.7,30.23,WSW,250,1.0,1.0,56,0.00,,---,0.00,VWS V14.00,2013-01-25 09:06:00,
2013-01-25 04:11:00,9.9,-3.0,30.23,WSW,249,1.0,2.0,55,0.00,,---,0.00,VWS V14.00,2013-01-25 09:11:00,
2013-01-25 04:16:00,9.9,-3.0,30.23,WSW,250,1.0,2.0,55,0.00,,---,0.00,VWS V14.00,2013-01-25 09:16:00,
2013-01-25 04:21:00,9.7,-2.8,30.23,SSW,213,2.0,2.0,56,0.00,,---,0.00,VWS V14.00,2013-01-25 09:21:00,
2013-01-25 04:26:00,9.6,-2.9,30.23,SSW,213,2.0,2.0,56,0.00,,---,0.00,VWS V14.00,2013-01-25 09:26:00,
2013-01-25 04:31:00,9.6,-2.9,30.23,SSW,213,1.0,2.0,56,0.00,,---,0.00,VWS V14.00,2013-01-25 09:31:00,
2013-01-25 04:36:00,9.5,-3.0,30.23,SSW,213,1.0,2.0,56,0.00,,---,0.00,VWS V14.00,2013-01-25 09:36:00,
2013-01-25 04:41:00,9.5,-3.4,30.23,SSW,213,1.0,1.0,55,0.00,,---,0.00,VWS V14.00,2013-01-25 09:41:00,
2013-01-25 04:46:00,9.4,-3.1,30.23,SSW,213,1.0,2.0,56,0.00,,---,0.00,VWS V14.00,2013-01-25 09:46:00,
2013-01-25 04:51:00,9.4,-3.1,30.24,SSW,213,2.0,2.0,56,0.00,,---,0.00,VWS V14.00,2013-01-25 09:51:00,
2013-01-25 04:56:00,9.4,-3.5,30.23,WNW,296,1.0,3.0,55,0.00,,---,0.00,VWS V14.00,2013-01-25 09:56:00,
2013-01-25 05:01:00,9.4,-3.5,30.23,WNW,296,0.0,2.0,55,0.00,,---,0.00,VWS V14.00,2013-01-25 10:01:00,
2013-01-25 05:06:00,9.4,-3.1,30.23,West,259,0.0,1.0,56,0.00,,---,0.00,VWS V14.00,2013-01-25 10:06:00,
2013-01-25 05:11:00,9.4,-3.1,30.23,West,264,0.0,2.0,56,0.00,,---,0.00,VWS V14.00,2013-01-25 10:11:00,
2013-01-25 05:16:00,9.4,-2.8,30.24,West,267,1.0,2.0,57,0.00,,---,0.00,VWS V14.00,2013-01-25 10:16:00,
2013-01-25 05:21:00,9.4,-2.8,30.24,West,267,2.0,3.0,57,0.00,,---,0.00,VWS V14.00,2013-01-25 10:21:00,
2013-01-25 05:26:00,9.5,-2.3,30.24,West,266,2.0,2.0,58,0.00,,---,0.00,VWS V14.00,2013-01-25 10:26:00,
2013-01-25 05:31:00,9.5,-2.3,30.24,West,263,0.0,2.0,58,0.00,,---,0.00,VWS V14.00,2013-01-25 10:31:00,
2013-01-25 05:36:00,9.5,-2.3,30.24,West,263,1.0,2.0,58,0.00,,---,0.00,VWS V14.00,2013-01-25 10:36:00,
2013-01-25 05:41:00,9.5,-2.3,30.25,West,265,1.0,2.0,58,0.00,,---,0.00,VWS V14.00,2013-01-25 10:41:00,
2013-01-25 05:46:00,9.6,-2.2,30.25,West,265,1.0,1.0,58,0.00,,---,0.00,VWS V14.00,2013-01-25 10:46:00,
2013-01-25 05:51:00,9.6,-2.6,30.24,West,265,1.0,1.0,57,0.00,,---,0.00,VWS V14.00,2013-01-25 10:51:00,
2013-01-25 05:56:00,9.6,-2.6,30.24,West,265,0.0,1.0,57,0.00,,---,0.00,VWS V14.00,2013-01-25 10:56:00,
2013-01-25 06:01:00,9.5,-2.7,30.24,West,265,0.0,0.0,57,0.00,,---,0.00,VWS V14.00,2013-01-25 11:01:00,
2013-01-25 06:06:00,9.3,-3.2,30.23,West,263,0.0,1.0,56,0.00,,---,0.00,VWS V14.00,2013-01-25 11:06:00,
2013-01-25 06:11:00,9.2,-2.9,30.23,West,263,0.0,1.0,57,0.00,,---,0.00,VWS V14.00,2013-01-25 11:11:00,
2013-01-25 06:16:00,9.3,-2.8,30.23,West,263,1.0,1.0,57,0.00,,---,0.00,VWS V14.00,2013-01-25 11:16:00,
2013-01-25 06:21:00,9.3,-2.8,30.24,West,263,0.0,1.0,57,0.00,,---,0.00,VWS V14.00,2013-01-25 11:21:00,
2013-01-25 06:26:00,9.2,-2.9,30.23,West,263,0.0,1.0,57,0.00,,---,0.00,VWS V14.00,2013-01-25 11:26:00,
2013-01-25 06:31:00,9.2,-2.6,30.23,West,263,1.0,1.0,58,0.00,,---,0.00,VWS V14.00,2013-01-25 11:31:00,
2013-01-25 06:36:00,9.1,-3.0,30.24,West,263,1.0,2.0,57,0.00,,---,0.00,VWS V14.00,2013-01-25 11:36:00,
2013-01-25 06:41:00,9.1,-3.0,30.24,West,263,1.0,4.0,57,0.00,,---,0.00,VWS V14.00,2013-01-25 11:41:00,
2013-01-25 06:46:00,9.2,-2.6,30.24,West,263,0.0,1.0,58,0.00,,---,0.00,VWS V14.00,2013-01-25 11:46:00,
2013-01-25 06:51:00,9.1,-2.7,30.25,West,263,2.0,2.0,58,0.00,,---,0.00,VWS V14.00,2013-01-25 11:51:00,
2013-01-25 06:56:00,9.1,-2.7,30.25,West,263,1.0,2.0,58,0.00,,---,0.00,VWS V14.00,2013-01-25 11:56:00,
2013-01-25 07:01:00,9.0,-2.4,30.24,West,259,0.0,1.0,59,0.00,,---,0.00,VWS V14.00,2013-01-25 12:01:00,
2013-01-25 07:06:00,9.0,-2.4,30.24,WSW,254,0.0,1.0,59,0.00,,---,0.00,VWS V14.00,2013-01-25 12:06:00,
2013-01-25 07:11:00,8.9,-2.5,30.25,WSW,254,1.0,1.0,59,0.00,,---,0.00,VWS V14.00,2013-01-25 12:11:00,
2013-01-25 07:16:00,8.9,-2.8,30.24,WSW,254,1.0,1.0,58,0.00,,---,0.00,VWS V14.00,2013-01-25 12:16:00,
2013-01-25 07:21:00,8.9,-2.8,30.24,WSW,254,0.0,1.0,58,0.00,,---,0.00,VWS V14.00,2013-01-25 12:21:00,
2013-01-25 07:26:00,9.0,-3.1,30.24,WSW,254,0.0,1.0,57,0.00,,---,0.00,VWS V14.00,2013-01-25 12:26:00,
2013-01-25 07:31:00,9.1,-2.7,30.24,WSW,253,0.0,0.0,58,0.00,,---,0.00,VWS V14.00,2013-01-25 12:31:00,
2013-01-25 07:36:00,9.2,-2.6,30.24,WSW,253,0.0,2.0,58,0.00,,---,0.00,VWS V14.00,2013-01-25 12:36:00,
2013-01-25 07:41:00,9.3,-2.8,30.24,WSW,254,1.0,2.0,57,0.00,,---,0.00,VWS V14.00,2013-01-25 12:41:00,
2013-01-25 07:46:00,9.5,-2.3,30.24,WSW,254,2.0,2.0,58,0.00,,---,0.00,VWS V14.00,2013-01-25 12:46:00,
2013-01-25 07:51:00,9.6,-2.6,30.25,WSW,254,0.0,1.0,57,0.00,,---,0.00,VWS V14.00,2013-01-25 12:51:00,
2013-01-25 07:56:00,9.7,-2.8,30.24,WSW,254,0.0,2.0,56,0.00,,---,0.00,VWS V14.00,2013-01-25 12:56:00,
2013-01-25 08:01:00,9.8,-3.1,30.24,NW,307,2.0,5.0,55,0.00,,---,0.00,VWS V14.00,2013-01-25 13:01:00,
2013-01-25 08:06:00,10.0,-2.2,30.24,WSW,242,1.0,4.0,57,0.00,,---,0.00,VWS V14.00,2013-01-25 13:06:00,
2013-01-25 08:11:00,10.3,-1.5,30.25,WSW,242,1.0,1.0,58,0.00,,---,0.00,VWS V14.00,2013-01-25 13:11:00,
2013-01-25 08:16:00,10.5,-1.7,30.25,WSW,253,1.0,2.0,57,0.00,,---,0.00,VWS V14.00,2013-01-25 13:16:00,
2013-01-25 08:21:00,10.7,-1.5,30.26,WNW,288,2.0,3.0,57,0.00,,---,0.00,VWS V14.00,2013-01-25 13:21:00,
2013-01-25 08:26:00,10.9,-1.7,30.26,WNW,288,1.0,3.0,56,0.00,,---,0.00,VWS V14.00,2013-01-25 13:26:00,
2013-01-25 08:31:00,11.0,-2.0,30.26,WNW,288,1.0,2.0,55,0.00,,---,0.00,VWS V14.00,2013-01-25 13:31:00,
2013-01-25 08:36:00,11.1,-2.3,30.26,SW,219,1.0,3.0,54,0.00,,---,0.00,VWS V14.00,2013-01-25 13:36:00,
2013-01-25 08:41:00,11.2,-2.2,30.26,West,259,1.0,2.0,54,0.00,,---,0.00,VWS V14.00,2013-01-25 13:41:00,
2013-01-25 08:46:00,11.5,-1.9,30.26,SW,236,2.0,4.0,54,0.00,,---,0.00,VWS V14.00,2013-01-25 13:46:00,
2013-01-25 08:51:00,11.7,-1.7,30.26,WSW,245,2.0,3.0,54,0.00,,---,0.00,VWS V14.00,2013-01-25 13:51:00,
2013-01-25 08:55:00,11.9,-2.3,30.26,SW,220,1.0,4.0,52,0.00,,---,0.00,VWS V14.00,2013-01-25 13:55:00,
2013-01-25 09:00:00,12.1,-2.1,30.26,West,264,1.0,2.0,52,0.00,,---,0.00,VWS V14.00,2013-01-25 14:00:00,
2013-01-25 09:05:00,12.4,-1.9,30.26,West,263,1.0,1.0,52,0.00,,---,0.00,VWS V14.00,2013-01-25 14:05:00,
2013-01-25 09:10:00,12.7,-1.6,30.26,West,263,2.0,4.0,52,0.00,,---,0.00,VWS V14.00,2013-01-25 14:10:00,
2013-01-25 09:15:00,12.9,-1.4,30.26,West,264,1.0,3.0,52,0.00,,---,0.00,VWS V14.00,2013-01-25 14:15:00,
2013-01-25 09:20:00,13.2,-1.5,30.26,WSW,257,2.0,2.0,51,0.00,,---,0.00,VWS V14.00,2013-01-25 14:20:00,
2013-01-25 09:25:00,13.4,-2.2,30.26,WSW,237,5.0,5.0,49,0.00,,---,0.00,VWS V14.00,2013-01-25 14:25:00,
2013-01-25 09:30:00,13.7,-1.1,30.26,WNW,300,1.0,2.0,51,0.00,,---,0.00,VWS V14.00,2013-01-25 14:30:00,
2013-01-25 09:35:00,14.0,-1.2,30.26,WNW,298,0.0,2.0,50,0.00,,---,0.00,VWS V14.00,2013-01-25 14:35:00,
2013-01-25 09:40:00,14.3,-1.4,30.26,NW,322,3.0,3.0,49,0.00,,---,0.00,VWS V14.00,2013-01-25 14:40:00,
2013-01-25 09:45:00,14.6,-2.0,30.26,NW,325,6.0,6.0,47,0.00,,---,0.00,VWS V14.00,2013-01-25 14:45:00,
2013-01-25 09:50:00,14.8,-1.3,30.27,West,277,4.0,4.0,48,0.00,,---,0.00,VWS V14.00,2013-01-25 14:50:00,
2013-01-25 09:55:00,15.1,-1.5,30.26,NW,307,2.0,2.0,47,0.00,,---,0.00,VWS V14.00,2013-01-25 14:55:00,
2013-01-25 10:00:00,15.3,-1.3,30.26,NW,308,0.0,3.0,47,0.00,,---,0.00,VWS V14.00,2013-01-25 15:00:00,
2013-01-25 10:05:00,15.5,-0.7,30.26,WSW,252,5.0,5.0,48,0.00,,---,0.00,VWS V14.00,2013-01-25 15:05:00,
2013-01-25 10:10:00,15.7,-1.4,30.26,West,271,2.0,4.0,46,0.00,,---,0.00,VWS V14.00,2013-01-25 15:10:00,
2013-01-25 10:15:00,15.9,-2.2,30.25,SSW,211,0.0,4.0,44,0.00,,---,0.00,VWS V14.00,2013-01-25 15:15:00,
2013-01-25 10:20:00,16.1,-1.5,30.25,NW,311,2.0,2.0,45,0.00,,---,0.00,VWS V14.00,2013-01-25 15:20:00,
2013-01-25 10:25:00,16.2,-2.4,30.25,SSW,211,2.0,5.0,43,0.00,,---,0.00,VWS V14.00,2013-01-25 15:25:00,
2013-01-25 10:30:00,16.5,-1.1,30.25,West,272,3.0,6.0,45,0.00,,---,0.00,VWS V14.00,2013-01-25 15:30:00,
2013-01-25 10:35:00,16.8,-0.9,30.25,WSW,240,1.0,1.0,45,0.00,,---,0.00,VWS V14.00,2013-01-25 15:35:00,
2013-01-25 10:40:00,17.2,0.0,30.25,WSW,241,1.0,2.0,46,0.00,,---,0.00,VWS V14.00,2013-01-25 15:40:00,
2013-01-25 10:45:00,17.6,0.3,30.25,WSW,244,2.0,2.0,46,0.00,,---,0.00,VWS V14.00,2013-01-25 15:45:00,
2013-01-25 10:50:00,17.9,0.2,30.24,NW,304,2.0,6.0,45,0.00,,---,0.00,VWS V14.00,2013-01-25 15:50:00,
2013-01-25 10:55:00,18.2,0.9,30.24,WNW,286,2.0,2.0,46,0.00,,---,0.00,VWS V14.00,2013-01-25 15:55:00,
2013-01-25 11:00:00,18.2,0.0,30.24,WNW,284,2.0,4.0,44,0.00,,---,0.00,VWS V14.00,2013-01-25 16:00:00,
2013-01-25 11:05:00,18.2,-0.5,30.24,WNW,283,1.0,4.0,43,0.00,,---,0.00,VWS V14.00,2013-01-25 16:05:00,
2013-01-25 11:10:00,18.5,0.2,30.23,SSW,209,1.0,1.0,44,0.00,,---,0.00,VWS V14.00,2013-01-25 16:10:00,
2013-01-25 11:15:00,18.8,-1.0,30.23,WNW,289,0.0,2.0,41,0.00,,---,0.00,VWS V14.00,2013-01-25 16:15:00,
2013-01-25 11:20:00,19.2,-0.1,30.22,NW,313,1.0,4.0,42,0.00,,---,0.00,VWS V14.00,2013-01-25 16:20:00,
2013-01-25 11:25:00,19.7,0.3,30.22,NNE,26,5.0,5.0,42,0.00,,---,0.00,VWS V14.00,2013-01-25 16:25:00,
2013-01-25 11:30:00,19.8,-0.6,30.22,NW,323,1.0,4.0,40,0.00,,---,0.00,VWS V14.00,2013-01-25 16:30:00,
2013-01-25 11:35:00,19.9,-1.0,30.22,NW,306,1.0,2.0,39,0.00,,---,0.00,VWS V14.00,2013-01-25 16:35:00,
2013-01-25 11:40:00,20.2,0.3,30.22,West,277,3.0,4.0,41,0.00,,---,0.00,VWS V14.00,2013-01-25 16:40:00,
2013-01-25 11:45:00,20.6,0.6,30.21,West,279,3.0,4.0,41,0.00,,---,0.00,VWS V14.00,2013-01-25 16:45:00,
2013-01-25 11:50:00,20.8,0.8,30.21,West,274,1.0,2.0,41,0.00,,---,0.00,VWS V14.00,2013-01-25 16:50:00,
2013-01-25 11:55:00,21.0,-0.1,30.20,NW,321,0.0,4.0,39,0.00,,---,0.00,VWS V14.00,2013-01-25 16:55:00,
2013-01-25 12:00:00,21.1,0.6,30.20,WSW,241,0.0,1.0,40,0.00,,---,0.00,VWS V14.00,2013-01-25 17:00:00,
2013-01-25 12:05:00,21.3,0.2,30.20,SSW,196,4.0,4.0,39,0.00,,---,0.00,VWS V14.00,2013-01-25 17:05:00,
2013-01-25 12:10:00,21.5,0.9,30.20,WSW,252,1.0,3.0,40,0.00,,---,0.00,VWS V14.00,2013-01-25 17:10:00,
2013-01-25 12:15:00,21.7,1.6,30.20,WSW,252,0.0,2.0,41,0.00,,---,0.00,VWS V14.00,2013-01-25 17:15:00,
2013-01-25 12:20:00,21.8,0.7,30.20,WNW,299,1.0,2.0,39,0.00,,---,0.00,VWS V14.00,2013-01-25 17:20:00,
2013-01-25 12:25:00,21.9,0.8,30.19,WNW,299,1.0,4.0,39,0.00,,---,0.00,VWS V14.00,2013-01-25 17:25:00,
2013-01-25 12:30:00,21.9,0.8,30.19,SW,223,3.0,3.0,39,0.00,,---,0.00,VWS V14.00,2013-01-25 17:30:00,
2013-01-25 12:35:00,22.0,0.8,30.19,WSW,242,1.0,4.0,39,0.00,,---,0.00,VWS V14.00,2013-01-25 17:35:00,
2013-01-25 12:40:00,22.2,1.6,30.19,West,259,2.0,3.0,40,0.00,,---,0.00,VWS V14.00,2013-01-25 17:40:00,
2013-01-25 12:45:00,22.2,1.0,30.18,SW,222,1.0,2.0,39,0.00,,---,0.00,VWS V14.00,2013-01-25 17:45:00,
2013-01-25 12:50:00,22.4,0.6,30.18,SW,234,4.0,5.0,38,0.00,,---,0.00,VWS V14.00,2013-01-25 17:50:00,
2013-01-25 12:55:00,22.5,1.3,30.18,SW,234,2.0,3.0,39,0.00,,---,0.00,VWS V14.00,2013-01-25 17:55:00,
2013-01-25 13:00:00,22.7,2.5,30.17,SW,234,0.0,2.0,41,0.00,,---,0.00,VWS V14.00,2013-01-25 18:00:00,
2013-01-25 13:05:00,22.9,1.1,30.17,SW,236,2.0,2.0,38,0.00,,---,0.00,VWS V14.00,2013-01-25 18:05:00,
2013-01-25 13:10:00,23.1,1.8,30.17,SW,234,1.0,3.0,39,0.00,,---,0.00,VWS V14.00,2013-01-25 18:10:00,
2013-01-25 13:15:00,23.3,1.5,30.16,WSW,241,1.0,2.0,38,0.00,,---,0.00,VWS V14.00,2013-01-25 18:15:00,
2013-01-25 13:20:00,23.5,1.6,30.16,WSW,242,1.0,2.0,38,0.00,,---,0.00,VWS V14.00,2013-01-25 18:20:00,
2013-01-25 13:25:00,23.6,1.2,30.15,WSW,256,0.0,2.0,37,0.00,,---,0.00,VWS V14.00,2013-01-25 18:25:00,
2013-01-25 13:30:00,23.8,2.5,30.15,WSW,257,2.0,4.0,39,0.00,,---,0.00,VWS V14.00,2013-01-25 18:30:00,
2013-01-25 13:35:00,23.8,0.8,30.15,WSW,258,2.0,2.0,36,0.00,,---,0.00,VWS V14.00,2013-01-25 18:35:00,
2013-01-25 13:40:00,23.8,1.3,30.15,West,264,1.0,4.0,37,0.00,,---,0.00,VWS V14.00,2013-01-25 18:40:00,
2013-01-25 13:45:00,24.0,1.5,30.15,WSW,257,1.0,2.0,37,0.00,,---,0.00,VWS V14.00,2013-01-25 18:45:00,
2013-01-25 13:50:00,24.2,1.1,30.15,WSW,257,2.0,2.0,36,0.00,,---,0.00,VWS V14.00,2013-01-25 18:50:00,
2013-01-25 13:55:00,24.5,2.5,30.14,West,261,2.0,2.0,38,0.00,,---,0.00,VWS V14.00,2013-01-25 18:55:00,
2013-01-25 14:00:00,24.8,2.2,30.14,WSW,237,1.0,2.0,37,0.00,,---,0.00,VWS V14.00,2013-01-25 19:00:00,
2013-01-25 14:05:00,24.9,1.1,30.14,WSW,237,1.0,1.0,35,0.00,,---,0.00,VWS V14.00,2013-01-25 19:05:00,
2013-01-25 14:10:00,25.0,1.2,30.14,WSW,237,1.0,1.0,35,0.00,,---,0.00,VWS V14.00,2013-01-25 19:10:00,
2013-01-25 14:15:00,25.1,2.5,30.14,WSW,237,1.0,2.0,37,0.00,,---,0.00,VWS V14.00,2013-01-25 19:15:00,
2013-01-25 14:20:00,25.0,2.4,30.14,WSW,238,1.0,2.0,37,0.00,,---,0.00,VWS V14.00,2013-01-25 19:20:00,
2013-01-25 14:25:00,24.9,1.7,30.13,WSW,238,0.0,1.0,36,0.00,,---,0.00,VWS V14.00,2013-01-25 19:25:00,
2013-01-25 14:30:00,25.0,2.4,30.13,SW,228,0.0,2.0,37,0.00,,---,0.00,VWS V14.00,2013-01-25 19:30:00,
2013-01-25 14:35:00,24.9,1.1,30.13,NNW,333,0.0,1.0,35,0.00,,---,0.00,VWS V14.00,2013-01-25 19:35:00,
2013-01-25 14:40:00,25.0,1.8,30.12,NW,325,2.0,2.0,36,0.00,,---,0.00,VWS V14.00,2013-01-25 19:40:00,
2013-01-25 14:45:00,25.0,1.8,30.12,NW,325,2.0,2.0,36,0.00,,---,0.00,VWS V14.00,2013-01-25 19:45:00,
2013-01-25 14:50:00,25.1,0.7,30.12,NW,316,1.0,1.0,34,0.00,,---,0.00,VWS V14.00,2013-01-25 19:50:00,
2013-01-25 14:55:00,25.0,3.0,30.12,NW,317,2.0,2.0,38,0.00,,---,0.00,VWS V14.00,2013-01-25 19:55:00,
2013-01-25 15:00:00,24.9,0.5,30.12,NW,317,1.0,1.0,34,0.00,,---,0.00,VWS V14.00,2013-01-25 20:00:00,
2013-01-25 15:05:00,24.8,2.8,30.12,NW,317,0.0,1.0,38,0.00,,---,0.00,VWS V14.00,2013-01-25 20:05:00,
2013-01-25 15:10:00,24.8,2.8,30.12,NW,317,1.0,2.0,38,0.00,,---,0.00,VWS V14.00,2013-01-25 20:10:00,
2013-01-25 15:15:00,24.9,3.5,30.12,South,191,2.0,2.0,39,0.00,,---,0.00,VWS V14.00,2013-01-25 20:15:00,
2013-01-25 15:20:00,24.7,1.6,30.12,WSW,257,0.0,3.0,36,0.00,,---,0.00,VWS V14.00,2013-01-25 20:20:00,
2013-01-25 15:25:00,24.5,1.4,30.12,SSW,205,1.0,2.0,36,0.00,,---,0.00,VWS V14.00,2013-01-25 20:25:00,
2013-01-25 15:30:00,24.3,1.8,30.12,SSW,205,1.0,1.0,37,0.00,,---,0.00,VWS V14.00,2013-01-25 20:30:00,
2013-01-25 15:35:00,24.1,3.3,30.12,SSW,205,1.0,1.0,40,0.00,,---,0.00,VWS V14.00,2013-01-25 20:35:00,
2013-01-25 15:40:00,24.0,3.2,30.12,SSW,205,1.0,1.0,40,0.00,,---,0.00,VWS V14.00,2013-01-25 20:40:00,
2013-01-25 15:45:00,23.9,2.6,30.12,NW,304,1.0,2.0,39,0.00,,---,0.00,VWS V14.00,2013-01-25 20:45:00,
2013-01-25 15:50:00,23.8,2.5,30.12,NW,304,2.0,3.0,39,0.00,,---,0.00,VWS V14.00,2013-01-25 20:50:00,
2013-01-25 15:55:00,23.6,1.7,30.11,WNW,300,0.0,1.0,38,0.00,,---,0.00,VWS V14.00,2013-01-25 20:55:00,
2013-01-25 16:00:00,23.5,1.1,30.11,WNW,300,1.0,2.0,37,0.00,,---,0.00,VWS V14.00,2013-01-25 21:00:00,
2013-01-25 16:05:00,23.5,1.6,30.12,WNW,300,1.0,2.0,38,0.00,,---,0.00,VWS V14.00,2013-01-25 21:05:00,
2013-01-25 16:10:00,23.4,1.5,30.12,WNW,300,1.0,2.0,38,0.00,,---,0.00,VWS V14.00,2013-01-25 21:10:00,
2013-01-25 16:15:00,23.4,1.0,30.11,WNW,300,0.0,0.0,37,0.00,,---,0.00,VWS V14.00,2013-01-25 21:15:00,
2013-01-25 16:20:00,23.4,2.1,30.11,WNW,300,1.0,1.0,39,0.00,,---,0.00,VWS V14.00,2013-01-25 21:20:00,
2013-01-25 16:25:00,23.4,2.1,30.11,WNW,299,0.0,1.0,39,0.00,,---,0.00,VWS V14.00,2013-01-25 21:25:00,
2013-01-25 16:30:00,23.3,2.0,30.12,WNW,286,1.0,1.0,39,0.00,,---,0.00,VWS V14.00,2013-01-25 21:30:00,
2013-01-25 16:35:00,23.2,1.9,30.12,WNW,286,0.0,0.0,39,0.00,,---,0.00,VWS V14.00,2013-01-25 21:35:00,
2013-01-25 16:40:00,23.1,1.8,30.12,WNW,286,0.0,1.0,39,0.00,,---,0.00,VWS V14.00,2013-01-25 21:40:00,
2013-01-25 16:45:00,23.1,1.8,30.12,WNW,286,0.0,1.0,39,0.00,,---,0.00,VWS V14.00,2013-01-25 21:45:00,
2013-01-25 16:50:00,23.1,1.8,30.12,WNW,286,0.0,1.0,39,0.00,,---,0.00,VWS V14.00,2013-01-25 21:50:00,
2013-01-25 16:55:00,23.0,1.8,30.12,WNW,286,0.0,0.0,39,0.00,,---,0.00,VWS V14.00,2013-01-25 21:55:00,
2013-01-25 17:00:00,23.0,2.3,30.12,WNW,286,1.0,1.0,40,0.00,,---,0.00,VWS V14.00,2013-01-25 22:00:00,
2013-01-25 17:05:00,23.0,1.8,30.12,WNW,286,0.0,0.0,39,0.00,,---,0.00,VWS V14.00,2013-01-25 22:05:00,
2013-01-25 17:10:00,22.9,2.2,30.12,WNW,286,0.0,0.0,40,0.00,,---,0.00,VWS V14.00,2013-01-25 22:10:00,
2013-01-25 17:15:00,22.9,2.7,30.11,WNW,286,0.0,0.0,41,0.00,,---,0.00,VWS V14.00,2013-01-25 22:15:00,
2013-01-25 17:20:00,22.8,2.6,30.11,WNW,286,0.0,0.0,41,0.00,,---,0.00,VWS V14.00,2013-01-25 22:20:00,
2013-01-25 17:25:00,22.8,3.7,30.11,WNW,286,0.0,0.0,43,0.00,,---,0.00,VWS V14.00,2013-01-25 22:25:00,
2013-01-25 17:30:00,22.7,2.5,30.10,WNW,286,0.0,0.0,41,0.00,,---,0.00,VWS V14.00,2013-01-25 22:30:00,
2013-01-25 17:35:00,22.7,2.5,30.10,WNW,286,0.0,0.0,41,0.00,,---,0.00,VWS V14.00,2013-01-25 22:35:00,
2013-01-25 17:40:00,22.7,3.6,30.10,WNW,286,0.0,0.0,43,0.00,,---,0.00,VWS V14.00,2013-01-25 22:40:00,
2013-01-25 17:45:00,22.6,3.5,30.10,WNW,286,0.0,0.0,43,0.00,,---,0.00,VWS V14.00,2013-01-25 22:45:00,
2013-01-25 17:50:00,22.6,4.0,30.10,WNW,286,0.0,0.0,44,0.00,,---,0.00,VWS V14.00,2013-01-25 22:50:00,
2013-01-25 17:55:00,22.6,4.0,30.10,WNW,286,0.0,0.0,44,0.00,,---,0.00,VWS V14.00,2013-01-25 22:55:00,
2013-01-25 18:00:00,22.6,4.0,30.10,WNW,286,0.0,0.0,44,0.00,,---,0.00,VWS V14.00,2013-01-25 23:00:00,
2013-01-25 18:05:00,22.6,4.5,30.10,WNW,286,0.0,0.0,45,0.00,,---,0.00,VWS V14.00,2013-01-25 23:05:00,
2013-01-25 18:10:00,22.5,4.4,30.10,WNW,286,0.0,0.0,45,0.00,,---,0.00,VWS V14.00,2013-01-25 23:10:00,
2013-01-25 18:15:00,22.6,5.4,30.10,WNW,286,0.0,0.0,47,0.00,,---,0.00,VWS V14.00,2013-01-25 23:15:00,
2013-01-25 18:20:00,22.5,4.4,30.10,WNW,286,0.0,0.0,45,0.00,,---,0.00,VWS V14.00,2013-01-25 23:20:00,
2013-01-25 18:25:00,22.5,4.4,30.10,WNW,286,0.0,0.0,45,0.00,,---,0.00,VWS V14.00,2013-01-25 23:25:00,
2013-01-25 18:30:00,22.5,5.3,30.10,WNW,286,0.0,0.0,47,0.00,,---,0.00,VWS V14.00,2013-01-25 23:30:00,
2013-01-25 18:35:00,22.5,5.3,30.09,WNW,286,0.0,0.0,47,0.00,,---,0.00,VWS V14.00,2013-01-25 23:35:00,
2013-01-25 18:40:00,22.4,5.2,30.09,WNW,286,0.0,0.0,47,0.00,,---,0.00,VWS V14.00,2013-01-25 23:40:00,
2013-01-25 18:45:00,22.4,5.7,30.09,West,259,1.0,1.0,48,0.00,,---,0.00,VWS V14.00,2013-01-25 23:45:00,
2013-01-25 18:50:00,22.4,5.2,30.09,West,259,0.0,0.0,47,0.00,,---,0.00,VWS V14.00,2013-01-25 23:50:00,
2013-01-25 18:55:00,22.4,5.7,30.09,West,259,0.0,0.0,48,0.00,,---,0.00,VWS V14.00,2013-01-25 23:55:00,
2013-01-25 19:00:00,22.4,5.2,30.09,West,259,0.0,0.0,47,0.00,,---,0.00,VWS V14.00,2013-01-26 00:00:00,
2013-01-25 19:05:00,22.3,5.1,30.09,West,259,0.0,0.0,47,0.00,,---,0.00,VWS V14.00,2013-01-26 00:05:00,
2013-01-25 19:10:00,22.3,5.1,30.09,West,259,0.0,0.0,47,0.00,,---,0.00,VWS V14.00,2013-01-26 00:10:00,
2013-01-25 19:15:00,22.2,6.0,30.09,West,259,0.0,0.0,49,0.00,,---,0.00,VWS V14.00,2013-01-26 00:15:00,
2013-01-25 19:20:00,22.2,5.5,30.09,West,259,0.0,0.0,48,0.00,,---,0.00,VWS V14.00,2013-01-26 00:20:00,
2013-01-25 19:25:00,22.1,6.3,30.08,West,260,0.0,0.0,50,0.00,,---,0.00,VWS V14.00,2013-01-26 00:25:00,
2013-01-25 19:30:00,22.1,6.3,30.09,West,260,0.0,0.0,50,0.00,,---,0.00,VWS V14.00,2013-01-26 00:30:00,
2013-01-25 19:35:00,22.0,6.2,30.09,West,260,0.0,1.0,50,0.00,,---,0.00,VWS V14.00,2013-01-26 00:35:00,
2013-01-25 19:40:00,22.1,6.3,30.08,West,260,0.0,0.0,50,0.00,,---,0.00,VWS V14.00,2013-01-26 00:40:00,
2013-01-25 19:45:00,22.1,6.3,30.08,West,259,1.0,1.0,50,0.00,,---,0.00,VWS V14.00,2013-01-26 00:45:00,
2013-01-25 19:50:00,22.0,5.8,30.08,West,259,0.0,0.0,49,0.00,,---,0.00,VWS V14.00,2013-01-26 00:50:00,
2013-01-25 19:55:00,22.0,6.2,30.08,West,259,0.0,0.0,50,0.00,,---,0.00,VWS V14.00,2013-01-26 00:55:00,
2013-01-25 20:00:00,21.9,6.6,30.08,West,259,1.0,1.0,51,0.00,,---,0.00,VWS V14.00,2013-01-26 01:00:00,
2013-01-25 20:05:00,21.9,6.6,30.07,West,259,0.0,0.0,51,0.00,,---,0.00,VWS V14.00,2013-01-26 01:05:00,
2013-01-25 20:10:00,21.9,6.1,30.06,West,259,0.0,0.0,50,0.00,,---,0.00,VWS V14.00,2013-01-26 01:10:00,
2013-01-25 20:15:00,21.8,7.3,30.06,West,259,0.0,0.0,53,0.00,,---,0.00,VWS V14.00,2013-01-26 01:15:00,
2013-01-25 20:20:00,21.8,7.3,30.06,West,259,0.0,0.0,53,0.00,,---,0.00,VWS V14.00,2013-01-26 01:20:00,
2013-01-25 20:25:00,21.8,7.7,30.06,West,259,0.0,0.0,54,0.00,,---,0.00,VWS V14.00,2013-01-26 01:25:00,
2013-01-25 20:30:00,21.7,8.4,30.06,West,259,0.0,0.0,56,0.00,,---,0.00,VWS V14.00,2013-01-26 01:30:00,
2013-01-25 20:35:00,21.7,6.4,30.06,West,259,0.0,0.0,51,0.00,,---,0.00,VWS V14.00,2013-01-26 01:35:00,
2013-01-25 20:40:00,21.8,6.9,30.06,West,259,0.0,0.0,52,0.00,,---,0.00,VWS V14.00,2013-01-26 01:40:00,
2013-01-25 20:45:00,21.8,6.5,30.06,West,259,0.0,0.0,51,0.00,,---,0.00,VWS V14.00,2013-01-26 01:45:00,
2013-01-25 20:50:00,21.8,6.0,30.05,West,259,0.0,0.0,50,0.00,,---,0.00,VWS V14.00,2013-01-26 01:50:00,
2013-01-25 20:55:00,21.8,6.5,30.05,West,259,0.0,0.0,51,0.00,,---,0.00,VWS V14.00,2013-01-26 01:55:00,
2013-01-25 21:00:00,21.8,6.0,30.05,West,259,0.0,0.0,50,0.00,,---,0.00,VWS V14.00,2013-01-26 02:00:00,
2013-01-25 21:05:00,21.7,6.4,30.04,West,259,0.0,0.0,51,0.00,,---,0.00,VWS V14.00,2013-01-26 02:05:00,
2013-01-25 21:10:00,21.8,7.3,30.04,West,259,0.0,0.0,53,0.00,,---,0.00,VWS V14.00,2013-01-26 02:10:00,
2013-01-25 21:15:00,21.7,6.8,30.04,West,259,0.0,1.0,52,0.00,,---,0.00,VWS V14.00,2013-01-26 02:15:00,
2013-01-25 21:20:00,21.7,6.8,30.04,West,259,0.0,0.0,52,0.00,,---,0.00,VWS V14.00,2013-01-26 02:20:00,
2013-01-25 21:25:00,21.7,7.2,30.04,West,259,0.0,0.0,53,0.00,,---,0.00,VWS V14.00,2013-01-26 02:25:00,
2013-01-25 21:30:00,21.7,7.2,30.04,West,259,0.0,0.0,53,0.00,,---,0.00,VWS V14.00,2013-01-26 02:30:00,
2013-01-25 21:35:00,21.7,6.8,30.04,West,259,0.0,0.0,52,0.00,,---,0.00,VWS V14.00,2013-01-26 02:35:00,
2013-01-25 21:40:00,21.7,6.8,30.04,West,259,0.0,0.0,52,0.00,,---,0.00,VWS V14.00,2013-01-26 02:40:00,
2013-01-25 21:45:00,21.7,7.2,30.04,West,259,0.0,1.0,53,0.00,,---,0.00,VWS V14.00,2013-01-26 02:45:00,
2013-01-25 21:50:00,21.8,7.7,30.04,West,259,0.0,0.0,54,0.00,,---,0.00,VWS V14.00,2013-01-26 02:50:00,
2013-01-25 21:55:00,21.8,7.7,30.04,West,259,0.0,0.0,54,0.00,,---,0.00,VWS V14.00,2013-01-26 02:55:00,
2013-01-25 22:00:00,21.8,8.9,30.04,West,259,0.0,0.0,57,0.00,,---,0.00,VWS V14.00,2013-01-26 03:00:00,
2013-01-25 22:05:00,21.7,9.2,30.03,West,259,0.0,0.0,58,0.00,,---,0.00,VWS V14.00,2013-01-26 03:05:00,
2013-01-25 22:10:00,21.7,8.0,30.03,West,259,0.0,0.0,55,0.00,,---,0.00,VWS V14.00,2013-01-26 03:10:00,
2013-01-25 22:15:00,21.6,8.7,30.03,West,259,0.0,0.0,57,0.00,,---,0.00,VWS V14.00,2013-01-26 03:15:00,
2013-01-25 22:20:00,21.6,8.7,30.03,West,259,1.0,2.0,57,0.00,,---,0.00,VWS V14.00,2013-01-26 03:20:00,
2013-01-25 22:25:00,21.3,10.7,30.03,West,259,0.0,1.0,63,0.00,,---,0.00,VWS V14.00,2013-01-26 03:25:00,
2013-01-25 22:30:00,20.9,11.3,30.02,West,259,0.0,1.0,66,0.00,,---,0.00,VWS V14.00,2013-01-26 03:30:00,
2013-01-25 22:35:00,20.7,12.1,30.02,West,259,0.0,1.0,69,0.00,,---,0.00,VWS V14.00,2013-01-26 03:35:00,
2013-01-25 22:40:00,20.3,12.4,30.02,West,259,0.0,0.0,71,0.00,,---,0.00,VWS V14.00,2013-01-26 03:40:00,
2013-01-25 22:45:00,20.0,12.4,30.02,West,259,0.0,0.0,72,0.00,,---,0.00,VWS V14.00,2013-01-26 03:45:00,
2013-01-25 22:50:00,19.7,12.5,30.02,West,259,0.0,1.0,73,0.00,,---,0.00,VWS V14.00,2013-01-26 03:50:00,
2013-01-25 22:55:00,19.7,12.5,30.02,West,259,0.0,0.0,73,0.00,,---,0.00,VWS V14.00,2013-01-26 03:55:00,
2013-01-25 23:00:00,19.6,13.0,30.01,West,259,0.0,2.0,75,0.00,,---,0.00,VWS V14.00,2013-01-26 04:00:00,
2013-01-25 23:05:00,19.5,13.2,30.01,West,259,0.0,1.0,76,0.00,,---,0.00,VWS V14.00,2013-01-26 04:05:00,
2013-01-25 23:10:00,19.4,13.1,30.01,West,259,0.0,0.0,76,0.00,,---,0.00,VWS V14.00,2013-01-26 04:10:00,
2013-01-25 23:15:00,19.4,13.4,30.01,West,259,0.0,0.0,77,0.00,,---,0.00,VWS V14.00,2013-01-26 04:15:00,
2013-01-25 23:20:00,19.3,13.6,30.01,West,259,0.0,0.0,78,0.00,,---,0.00,VWS V14.00,2013-01-26 04:20:00,
2013-01-25 23:25:00,19.3,13.9,30.01,West,259,0.0,1.0,79,0.00,,---,0.00,VWS V14.00,2013-01-26 04:25:00,
2013-01-25 23:30:00,19.2,13.8,30.01,West,259,0.0,0.0,79,0.00,,---,0.00,VWS V14.00,2013-01-26 04:30:00,
2013-01-25 23:35:00,19.1,14.0,30.01,West,259,0.0,0.0,80,0.00,,---,0.00,VWS V14.00,2013-01-26 04:35:00,
2013-01-25 23:40:00,19.0,13.9,30.00,West,259,0.0,0.0,80,0.00,,---,0.00,VWS V14.00,2013-01-26 04:40:00,
2013-01-25 23:45:00,18.9,14.0,30.00,West,259,0.0,0.0,81,0.00,,---,0.00,VWS V14.00,2013-01-26 04:45:00,
2013-01-25 23:50:00,18.8,13.9,30.00,West,259,0.0,1.0,81,0.00,,---,0.00,VWS V14.00,2013-01-26 04:50:00,
2013-01-25 23:55:00,18.8,13.9,30.00,West,259,0.0,1.0,81,0.00,,---,0.00,VWS V14.00,2013-01-26 04:55:00,